User: anonymous   Login
Location: Unspecified
(0.0000°N, 0.0000°E)
Time: 22:06:31
(UTC+00:00)
Language:

Tiangong - Orbit

View from above orbital plane
View from above orbital plane
View from above satellite
View from above satellite

Ground track
Ground track

The orbit data is extracted from the following two-line orbital elements,

1 48274U 21035A   21300.46738122  .00012638  00000-0  15072-3 0  9993
2 48274  41.4704 196.4253 0006840 270.7404 260.4101 15.60840599 28381
Epoch (UTC): 27 October 2021 11:13:01
Eccentricity: 0.0006840
inclination: 41.4704°
perigee height: 380 km
apogee height: 390 km
right ascension of ascending node: 196.4253°
argument of perigee: 270.7404°
revolutions per day: 15.60840599
mean anomaly at epoch: 260.4101°
orbit number at epoch: 2838

The dashed part of the orbit path shows where the satellite is in the earth's shadow,  

DLR